sat.trackr.live / text

‹ back to catalog

ONEWEB-0223

NORAD 48768 · 2021-045B

PAYLOAD ACTIVE UNKNOWN

§ Identity

Operator
Country
UK
Launch date
2021-05-28
Launch site
VOSTO
Launch vehicle
Mass (kg)
RCS (m²)

Purposes: comms

External: N2YO · Heavens-Above · Gunter

§ Orbital elements

Epoch: 2026-05-25T01:43:26.963040Z

Period
109.46 min
Inclination
87.8997°
Eccentricity
0.0001496
Mean motion
13.15547421 rev/d
Perigee alt
1,200.6 km
Apogee alt
1,202.9 km
Semi-major
7,579.9 km
B*
-3.3883e-5
RAAN
263.7945°
Arg perigee
95.9344°
Mean anomaly
264.1957°
Rev number
24,136

§ Raw data

ONEWEB-02231 48768U 21045B   26145.07183985  .00000000  00000+0 -33883-4 0  99932 48768  87.8997 263.7945 0001496  95.9344 264.1957 13.15547421241366

JSON: /api/v1/satellites/48768 · /tle

For live sub-satellite position, see the globe view (requires WebGL).

§ Visibility from observer

Set your observer location to see the next 7 days of passes ≥ 10°. The values pass through the URL so the page stays shareable.

No JS? Fill the form by hand. The geolocation button needs JavaScript.